TimeEDT,TemperatureF,Dew PointF,Humidity,Sea Level PressureIn,VisibilityMPH,Wind Direction,Wind SpeedMPH,Gust SpeedMPH,PrecipitationIn,Events,Conditions,WindDirDegrees,DateUTC
12:53 AM,79.0,73.0,82,29.86,10.0,WSW,3.5,-,N/A,,Clear,250,2012-10-20 04:53:00
1:53 AM,79.0,73.0,82,29.86,10.0,WNW,5.8,-,N/A,,Clear,290,2012-10-20 05:53:00
2:53 AM,79.0,73.0,82,29.85,10.0,NW,3.5,-,N/A,,Scattered Clouds,310,2012-10-20 06:53:00
3:53 AM,78.1,73.0,84,29.85,10.0,North,5.8,-,0.00,Rain,Light Rain,350,2012-10-20 07:53:00
4:53 AM,75.9,73.0,91,29.86,10.0,North,5.8,-,0.08,,Overcast,360,2012-10-20 08:53:00
5:01 AM,75.2,73.4,94,29.86,10.0,North,5.8,-,N/A,,Overcast,10,2012-10-20 09:01:00
5:53 AM,75.0,71.1,87,29.87,10.0,North,6.9,-,N/A,,Partly Cloudy,10,2012-10-20 09:53:00
6:53 AM,75.0,66.9,76,29.89,10.0,North,6.9,-,N/A,,Clear,360,2012-10-20 10:53:00
7:53 AM,75.0,66.0,73,29.91,10.0,NE,11.5,-,N/A,,Overcast,40,2012-10-20 11:53:00
8:53 AM,75.0,64.0,69,29.93,10.0,NE,11.5,-,N/A,,Partly Cloudy,40,2012-10-20 12:53:00
9:53 AM,75.9,60.1,58,29.95,10.0,NE,10.4,-,N/A,,Clear,50,2012-10-20 13:53:00
10:53 AM,78.1,61.0,56,29.95,10.0,NE,6.9,-,N/A,,Clear,40,2012-10-20 14:53:00
11:53 AM,79.0,62.1,56,29.95,10.0,NE,10.4,-,N/A,,Clear,40,2012-10-20 15:53:00
12:53 PM,80.1,63.0,56,29.93,10.0,NE,8.1,-,N/A,,Clear,40,2012-10-20 16:53:00
1:53 PM,79.0,64.0,60,29.91,10.0,ENE,12.7,-,N/A,,Clear,70,2012-10-20 17:53:00
2:53 PM,80.1,64.0,58,29.88,10.0,East,6.9,-,N/A,,Clear,80,2012-10-20 18:53:00
3:53 PM,82.0,62.1,51,29.87,10.0,SSE,6.9,-,N/A,,Clear,150,2012-10-20 19:53:00
4:53 PM,81.0,59.0,47,29.87,10.0,NNW,10.4,-,N/A,,Clear,340,2012-10-20 20:53:00
5:53 PM,79.0,57.9,48,29.88,10.0,North,11.5,-,N/A,,Clear,350,2012-10-20 21:53:00
6:53 PM,75.9,55.0,48,29.89,10.0,North,11.5,-,N/A,,Clear,360,2012-10-20 22:53:00
7:53 PM,73.9,54.0,50,29.91,10.0,North,8.1,-,N/A,,Clear,360,2012-10-20 23:53:00
8:53 PM,73.0,55.0,53,29.93,10.0,North,4.6,-,N/A,,Clear,360,2012-10-21 00:53:00
9:53 PM,73.0,57.9,59,29.95,10.0,North,5.8,-,N/A,,Clear,350,2012-10-21 01:53:00
10:53 PM,73.0,57.9,59,29.96,10.0,North,6.9,-,N/A,,Clear,360,2012-10-21 02:53:00
11:53 PM,72.0,57.9,61,29.97,10.0,North,5.8,-,N/A,,Clear,360,2012-10-21 03:53:00